Location: Civry
(47.2902°N, 4.6156°E)
Time: 13:20:29
(UTC+00:00)

FALCON 9 DEB - Pass Details

Date: 09 April 2020
Orbit: 429 x 441 km, 53.0° (Epoch: 23 May)

Event Time Altitude Azimuth Distance (km) Brightness Sun altitude
Rises 19:25:48 0° 232° (SW) 2,422 7.3 -10.9°
Reaches altitude 10° 19:27:56 10° 229° (SW) 1,555 6.3 -11.3°
Maximum altitude 19:31:24 66° 148° (SSE) 485 3.1 -11.8°
Drops below altitude 10° 19:34:52 10° 65° (ENE) 1,559 5.6 -12.3°
Enters shadow 19:35:01 - 65° (ENE) 1,619 5.7 -12.3°
